Location: ????? ???????
(25.7275°N, 32.5929°E)
Time: 12:07:28
(UTC+00:00)

DMSP B5D2-2 - Pass Details

Date: 02 March 2021
Orbit: 789 x 807 km, 98.3° (Epoch: 16 April)

Event Time Altitude Azimuth Distance (km) Brightness Sun altitude
Rises 16:59:15 0° 14° (NNE) 3,292 7.1 -15.9°
Reaches altitude 10° 17:01:35 10° 16° (NNE) 2,358 6.4 -16.5°
Maximum altitude 17:06:47 74° 102° (ESE) 820 3.9 -17.6°
Drops below altitude 10° 17:11:57 10° 187° (S) 2,342 6.6 -18.8°
Sets 17:14:16 0° 189° (S) 3,268 7.4 -19.3°
